Back to catalog

STARLINK-5389

AliveCommunicationsVLEO
NORAD 54835·PAYLOAD·🇺🇸 United States

Launched Dec 28, 2022 from Cape Canaveral Space Force Station

Loading…

Next Passes (next 24 hours)

TLE

FreshSource: CelesTrak SupGP

Epoch: Sep 15, 2026, 01:48 UTC

1 54835C 22177R   26258.07548611  .00034171  00000+0  12380-2 0  2588
2 54835  43.0018 146.7779 0001222 270.2639 114.4233 15.27552373    19

Track STARLINK-5389 in real time with AllMySat

Download on the App Store